GW5576 Weather Reports


time (UTC)temp
C
wind
direction
speed
KPH
gust
KPH
rain 1hr
cm
rain 24hr
cm
rain mn
cm
humidity
%
barometer
mb
20260506014003 11 353 1.6 3.2 0.00 0.00 0.00 86 1008.3
20260506013718 11 340 1.6 4.8 0.00 0.00 0.00 86 1008.4
20260506013217 11 336 1.6 6.4 0.00 0.00 0.00 85 1008.5
20260506012718 11 331 1.6 6.4 0.00 0.00 0.00 85 1008.6
20260506012003 11 327 1.6 4.8 0.00 0.00 0.00 84 1008.5
20260506011718 11 327 1.6 4.8 0.00 0.00 0.00 84 1008.3
20260506011003 11 315 1.6 8.0 0.00 0.00 0.00 84 1008.3
20260506010718 11 304 1.6 8.0 0.00 0.00 0.00 84 1008.2
20260506010003 11 320 1.6 4.8 0.00 0.00 0.00 85 1008.3
20260506005503 11 335 1.6 4.8 0.00 0.00 0.00 85 1008.3
20260506005217 11 310 0.0 3.2 0.00 0.00 0.00 84 1008.1
20260506004718 11 327 0.0 1.6 0.00 0.00 0.00 84 1008.3
20260506004003 12 342 0.0 3.2 0.00 0.00 0.00 83 1008.4
20260506003718 12 291 0.0 1.6 0.00 0.00 0.00 83 1008.2
20260506003003 12 248 0.0 3.2 0.00 0.00 0.00 82 1008.2
20260506002717 12 256 0.0 3.2 0.00 0.00 0.00 82 1008.3
20260506002003 12 257 0.0 6.4 0.00 0.00 0.00 82 1008.3
20260506001503 12 231 1.6 3.2 0.00 0.00 0.00 82 1008.5
20260506001003 12 227 1.6 4.8 0.00 0.00 0.00 81 1008.3
20260506000503 12 223 1.6 3.2 0.00 0.00 0.00 81 1008.5
20260506000003 12 235 0.0 4.8 0.00 0.00 0.00 80 1008.3
20260505235717 12 234 0.0 4.8 0.00 0.00 0.00 80 1008.5
20260505235003 12 279 0.0 3.2 0.00 0.00 0.00 80 1008.8
20260505234503 13 212 0.0 3.2 0.00 0.00 0.00 79 1008.6
20260505234003 13 230 0.0 3.2 0.00 0.00 0.00 79 1008.8
20260505233503 13 248 0.0 3.2 0.00 0.00 0.00 78 1008.7
20260505233003 13 266 0.0 1.6 0.00 0.00 0.00 78 1008.9
20260505232503 13 291 1.6 3.2 0.00 0.00 0.00 78 1008.8
20260505232003 13 303 1.6 4.8 0.00 0.00 0.00 78 1008.7
20260505231503 13 300 1.6 6.4 0.00 0.00 0.00 78 1008.7
20260505231003 13 293 1.6 3.2 0.00 0.00 0.00 79 1008.6
20260505230503 13 285 1.6 6.4 0.00 0.00 0.00 80 1008.7
20260505230003 12 294 0.0 8.0 0.00 0.00 0.00 83 1008.9
20260505225503 12 343 0.0 1.6 0.00 0.00 0.00 86 1009.1
20260505225003 12 304 0.0 3.2 0.00 0.00 0.00 86 1009.0
20260505224503 12 245 0.0 3.2 0.00 0.00 0.00 85 1008.9
20260505224003 12 242 0.0 3.2 0.00 0.00 0.00 85 1009.1
20260505223503 12 254 0.0 3.2 0.00 0.00 0.00 85 1009.1
20260505223218 12 291 0.0 3.2 0.00 0.00 0.00 84 1009.1
20260505222717 12 0 0.0 0.0 0.00 0.00 0.00 84 1008.8
20260505222003 12 229 0.0 0.0 0.00 0.00 0.00 84 1008.9
20260505221503 13 237 0.0 3.2 0.00 0.00 0.00 83 1008.7
20260505221218 13 33 0.0 1.6 0.00 0.00 0.00 84 1008.5
20260505220503 12 0 0.0 0.0 0.00 0.00 0.00 84 1008.7
20260505220003 12 343 0.0 0.0 0.00 0.00 0.00 84 1008.7
20260505215503 13 3 0.0 1.6 0.00 0.00 0.00 83 1008.6
20260505215003 13 8 0.0 1.6 0.00 0.00 0.00 83 1008.4
20260505214503 13 339 0.0 3.2 0.00 0.00 0.00 83 1008.4
20260505214004 13 336 0.0 3.2 0.00 0.00 0.00 83 1008.4
20260505213503 13 350 0.0 3.2 0.00 0.00 0.00 83 1008.3
20260505213003 13 13 0.0 3.2 0.00 0.00 0.00 82 1008.4
20260505212503 13 194 0.0 3.2 0.00 0.00 0.00 81 1008.3
20260505212003 13 208 0.0 3.2 0.00 0.00 0.00 81 1008.4
20260505211503 13 30 0.0 1.6 0.00 0.00 0.00 82 1008.5
20260505211004 13 27 1.6 3.2 0.00 0.00 0.00 82 1008.5
20260505210503 13 9 1.6 3.2 0.00 0.00 0.00 82 1008.6
20260505210003 13 354 1.6 4.8 0.00 0.00 0.00 82 1008.7
20260505205503 13 353 1.6 4.8 0.00 0.00 0.00 83 1008.7
20260505205003 13 352 0.0 1.6 0.00 0.00 0.00 82 1008.6
20260505204503 13 347 1.6 3.2 0.00 0.00 0.00 82 1008.7
20260505204003 13 346 1.6 3.2 0.00 0.00 0.00 81 1008.5
20260505203503 13 347 1.6 3.2 0.00 0.00 0.00 81 1008.4
20260505203003 13 357 1.6 3.2 0.00 0.00 0.00 81 1008.4
20260505202718 13 5 0.0 3.2 0.00 0.00 0.00 80 1008.4
20260505202217 13 348 0.0 3.2 0.00 0.00 0.00 79 1008.5
20260505201503 13 248 0.0 1.6 0.00 0.00 0.00 79 1008.2
20260505201003 13 246 0.0 1.6 0.00 0.00 0.00 79 1008.1
20260505200503 13 245 0.0 1.6 0.00 0.00 0.00 79 1008.2
20260505200003 13 245 0.0 1.6 0.00 0.00 0.00 79 1008.2
20260505195503 13 253 0.0 1.6 0.00 0.00 0.00 79 1008.0
20260505195003 13 260 0.0 1.6 0.00 0.00 0.00 79 1007.9
20260505194503 13 251 0.0 1.6 0.00 0.00 0.00 79 1008.0
20260505194003 13 263 0.0 1.6 0.00 0.00 0.00 78 1008.0
20260505193503 13 278 0.0 1.6 0.00 0.00 0.00 79 1007.9
20260505193217 13 276 0.0 3.2 0.00 0.00 0.00 79 1008.0
20260505192503 13 247 0.0 1.6 0.00 0.00 0.00 79 1007.8
20260505192003 13 248 0.0 3.2 0.00 0.00 0.00 79 1007.9
20260505191718 13 245 0.0 3.2 0.00 0.00 0.00 79 1007.7
20260505191003 13 253 0.0 3.2 0.00 0.00 0.00 79 1007.6
20260505190717 13 261 1.6 3.2 0.00 0.00 0.00 79 1007.8
20260505190003 14 260 1.6 3.2 0.00 0.00 0.00 78 1007.7
20260505185503 14 254 1.6 3.2 0.00 0.00 0.00 77 1007.5
20260505185003 14 242 1.6 3.2 0.00 0.00 0.00 77 1007.4
20260505184503 14 250 1.6 3.2 0.00 0.00 0.00 76 1007.6
20260505184003 14 254 0.0 3.2 0.00 0.00 0.00 76 1007.7
20260505183503 14 254 0.0 3.2 0.00 0.00 0.00 75 1007.4
20260505183003 15 263 1.6 3.2 0.00 0.00 0.00 75 1007.3
20260505182717 15 237 1.6 3.2 0.00 0.00 0.00 74 1007.2
20260505182003 15 208 1.6 8.0 0.00 0.00 0.00 73 1007.4
20260505181503 15 211 1.6 8.0 0.00 0.00 0.00 73 1007.0
20260505181003 15 213 1.6 4.8 0.00 0.00 0.00 73 1007.2
20260505180503 15 210 1.6 6.4 0.00 0.00 0.00 73 1007.3
20260505180003 15 214 3.2 8.0 0.00 0.00 0.00 73 1006.9
20260505175503 15 226 3.2 9.7 0.00 0.00 0.00 73 1007.2
20260505175003 15 235 3.2 6.4 0.00 0.00 0.00 73 1007.2
20260505174503 15 226 3.2 8.0 0.00 0.00 0.00 72 1007.0
20260505174003 15 229 3.2 9.7 0.00 0.00 0.00 72 1006.9
20260505173503 15 250 1.6 6.4 0.00 0.00 0.00 72 1006.8
20260505173003 15 237 1.6 4.8 0.00 0.00 0.00 72 1006.8
20260505172503 16 225 3.2 8.0 0.00 0.00 0.00 71 1006.9
20260505172003 16 228 3.2 9.7 0.00 0.00 0.00 71 1006.8
20260505171503 16 225 3.2 6.4 0.00 0.00 0.00 70 1006.7
20260505171003 16 222 3.2 12.9 0.00 0.00 0.00 70 1006.5
20260505170503 16 223 3.2 9.7 0.00 0.00 0.00 70 1006.7
20260505170003 16 227 3.2 14.5 0.00 0.00 0.00 71 1006.7
20260505165717 16 226 4.8 14.5 0.00 0.00 0.00 71 1006.7
20260505165003 16 240 4.8 14.5 0.00 0.00 0.00 71 1006.7
20260505164503 15 245 3.2 11.3 0.00 0.00 0.00 71 1007.0
20260505164003 16 221 4.8 11.3 0.00 0.00 0.00 70 1006.9
20260505163503 16 218 3.2 14.5 0.00 0.00 0.00 70 1006.7
20260505163003 16 270 3.2 8.0 0.00 0.00 0.00 71 1006.9
20260505162716 15 324 3.2 9.7 0.00 0.00 0.00 71 1006.9
20260505162003 16 277 3.2 12.9 0.00 0.00 0.00 72 1007.0
20260505161503 16 251 3.2 11.3 0.00 0.00 0.00 72 1007.2
20260505161003 16 243 4.8 14.5 0.00 0.00 0.00 71 1007.3
20260505160503 16 203 4.8 14.5 0.00 0.00 0.00 70 1007.2
20260505153003 17 16 3.2 8.0 0.00 0.00 0.00 68 1007.2
20260505152503 17 4 3.2 12.9 0.00 0.00 0.00 67 1007.2
20260505152003 17 2 3.2 9.7 0.00 0.00 0.00 67 1007.2
20260505151503 17 14 3.2 11.3 0.00 0.00 0.00 64 1007.0
20260505151003 17 22 3.2 6.4 0.00 0.00 0.00 61 1007.3
20260505150503 17 25 3.2 8.0 0.00 0.00 0.00 61 1006.9
20260505140503 18 83 3.2 4.8 0.00 0.00 0.00 64 1007.2
20260505130218 22 139 1.6 4.8 0.00 0.00 0.00 37 1006.7
20260505125003 22 157 3.2 6.4 0.00 0.00 0.00 35 1006.5
20260505124503 22 164 4.8 9.7 0.00 0.00 0.00 36 1006.5
20260505124003 23 159 3.2 8.0 0.00 0.00 0.00 35 1006.6
20260505123717 23 158 3.2 6.4 0.00 0.00 0.00 35 1006.6
20260505123003 22 154 3.2 6.4 0.00 0.00 0.00 36 1006.6
20260505122717 22 150 3.2 6.4 0.00 0.00 0.00 37 1006.8
20260505122218 22 151 4.8 8.0 0.00 0.00 0.00 37 1006.8
20260505121503 22 149 3.2 6.4 0.00 0.00 0.00 36 1006.6
20260505121003 23 153 3.2 4.8 0.00 0.00 0.00 34 1006.8
20260505120503 22 162 3.2 6.4 0.00 0.00 0.00 36 1006.8
20260505120003 23 162 1.6 4.8 0.00 0.00 0.00 36 1006.8
20260505115503 23 162 1.6 4.8 0.00 0.00 0.00 37 1006.8
20260505115218 23 209 1.6 3.2 0.00 0.00 0.00 36 1006.8
20260505114503 22 220 1.6 6.4 0.00 0.00 0.00 36 1006.7
20260505114003 23 187 1.6 6.4 0.00 0.00 0.00 37 1006.8
20260505113503 22 166 1.6 4.8 0.00 0.00 0.00 39 1006.7
20260505113003 22 156 3.2 6.4 0.00 0.00 0.00 38 1006.8
20260505112503 21 156 3.2 6.4 0.00 0.00 0.00 39 1007.0
20260505112218 22 163 3.2 4.8 0.00 0.00 0.00 41 1007.0
20260505111716 22 170 3.2 8.0 0.00 0.00 0.00 42 1007.2
20260505111003 22 173 1.6 6.4 0.00 0.00 0.00 40 1007.2
20260505110503 22 180 1.6 6.4 0.00 0.00 0.00 40 1007.2
20260505102003 22 159 3.2 8.0 0.00 0.00 0.00 41 1007.5
20260505101503 22 161 3.2 6.4 0.00 0.00 0.00 42 1007.8
20260505101003 22 169 3.2 4.8 0.00 0.00 0.00 41 1007.7
20260505100503 22 159 3.2 6.4 0.00 0.00 0.00 44 1007.7
20260505100003 21 168 3.2 6.4 0.00 0.00 0.00 45 1007.8
20260505095503 21 196 3.2 6.4 0.00 0.00 0.00 47 1007.8
20260505095003 21 183 3.2 6.4 0.00 0.00 0.00 47 1007.7
20260505094503 20 182 3.2 8.0 0.00 0.00 0.00 49 1007.8
20260505094003 21 199 3.2 6.4 0.00 0.00 0.00 47 1007.8
20260505093503 21 176 3.2 6.4 0.00 0.00 0.00 46 1008.0
20260505093003 21 172 3.2 6.4 0.00 0.00 0.00 47 1008.0
20260505092503 22 180 3.2 6.4 0.00 0.00 0.00 45 1008.1
20260505092003 21 179 3.2 9.7 0.00 0.00 0.00 47 1008.2
20260505091503 22 169 3.2 6.4 0.00 0.00 0.00 46 1008.2
20260505091217 22 169 3.2 4.8 0.00 0.00 0.00 46 1008.2
20260505090503 21 188 1.6 4.8 0.00 0.00 0.00 45 1008.2
20260505090003 20 192 1.6 6.4 0.00 0.00 0.00 48 1008.2
20260505085503 20 161 3.2 8.0 0.00 0.00 0.00 50 1008.5
20260505085003 20 153 3.2 8.0 0.00 0.00 0.00 54 1008.3
20260505084718 20 189 1.6 4.8 0.00 0.00 0.00 53 1008.3
20260505084003 21 203 3.2 6.4 0.00 0.00 0.00 51 1008.4
20260505083503 22 181 1.6 4.8 0.00 0.00 0.00 48 1008.4
20260505083003 21 180 1.6 4.8 0.00 0.00 0.00 48 1008.5
20260505082503 20 189 1.6 4.8 0.00 0.00 0.00 51 1008.5
20260505082216 20 197 1.6 4.8 0.00 0.00 0.00 51 1008.7
20260505081503 20 195 1.6 4.8 0.00 0.00 0.00 53 1008.8
20260505081003 20 178 1.6 3.2 0.00 0.00 0.00 54 1008.7
20260505080503 20 165 3.2 4.8 0.00 0.00 0.00 56 1008.6
20260505080003 19 154 3.2 6.4 0.00 0.00 0.00 56 1008.8
20260505075717 18 148 3.2 6.4 0.00 0.00 0.00 58 1009.0
20260505075003 20 140 1.6 4.8 0.00 0.00 0.00 54 1009.0
20260505074503 19 157 1.6 4.8 0.00 0.00 0.00 56 1009.0
20260505074216 18 166 3.2 4.8 0.00 0.00 0.00 57 1008.9
20260505073717 18 161 3.2 4.8 0.00 0.00 0.00 57 1008.9
20260505073003 18 130 1.6 6.4 0.00 0.00 0.00 60 1008.9
20260505072503 18 133 1.6 3.2 0.00 0.00 0.00 60 1009.2
20260505072003 17 139 1.6 3.2 0.00 0.00 0.00 60 1009.0
20260505071503 19 132 1.6 4.8 0.00 0.00 0.00 57 1008.8
20260505071003 18 140 1.6 4.8 0.00 0.00 0.00 58 1008.8
20260505070503 18 126 0.0 3.2 0.00 0.00 0.00 59 1008.9
20260505070003 17 97 1.6 3.2 0.00 0.00 0.00 60 1008.8
20260505065717 17 138 1.6 3.2 0.00 0.00 0.00 61 1008.9
20260505065003 17 184 1.6 4.8 0.00 0.00 0.00 61 1009.0
20260505064503 17 180 1.6 4.8 0.00 0.00 0.00 62 1009.2
20260505064003 17 208 1.6 3.2 0.00 0.00 0.00 61 1009.1
20260505063717 17 206 1.6 3.2 0.00 0.00 0.00 61 1009.3
20260505063003 17 195 1.6 4.8 0.00 0.00 0.00 62 1009.4
20260505062503 17 147 0.0 3.2 0.00 0.00 0.00 63 1009.3
20260505062003 16 157 1.6 3.2 0.00 0.00 0.00 65 1009.4
20260505061503 16 166 1.6 3.2 0.00 0.00 0.00 65 1009.5
20260505061003 16 161 0.0 3.2 0.00 0.00 0.00 66 1009.4
20260505060503 16 156 0.0 3.2 0.00 0.00 0.00 66 1009.6
20260505060003 16 203 0.0 1.6 0.00 0.00 0.00 65 1009.6
20260505055503 16 223 0.0 3.2 0.00 0.00 0.00 67 1009.6
20260505055217 15 247 0.0 3.2 0.00 0.00 0.00 69 1009.8
20260505054503 13 308 0.0 3.2 0.00 0.00 0.00 77 1009.5
20260505054003 13 94 0.0 3.2 0.00 0.00 0.00 77 1009.8
20260505053503 12 84 0.0 3.2 0.00 0.00 0.00 78 1009.9
20260505053003 12 128 0.0 3.2 0.00 0.00 0.00 79 1009.8
20260505052503 12 147 0.0 3.2 0.00 0.00 0.00 79 1009.5
20260505052003 12 131 0.0 3.2 0.00 0.00 0.00 80 1009.8
20260505051503 12 97 1.6 3.2 0.00 0.00 0.00 80 1009.5
20260505051003 12 99 1.6 3.2 0.00 0.00 0.00 80 1009.6
20260505050716 12 109 1.6 3.2 0.00 0.00 0.00 80 1009.4
20260505041503 11 65 1.6 4.8 0.00 0.00 0.00 82 1009.4
20260505041003 11 98 1.6 3.2 0.00 0.00 0.00 82 1009.5
20260505040503 11 105 1.6 3.2 0.00 0.00 0.00 82 1009.5
20260505040004 11 90 1.6 4.8 0.00 0.00 0.00 82 1009.6
20260505035503 11 94 0.0 1.6 0.00 0.00 0.00 82 1009.8
20260505035003 12 109 1.6 3.2 0.00 0.00 0.00 82 1009.5
20260505034503 12 109 1.6 4.8 0.00 0.00 0.00 81 1009.8
20260505034003 12 103 1.6 3.2 0.00 0.00 0.00 81 1009.5
20260505033503 12 109 1.6 3.2 0.00 0.00 0.00 81 1009.5
20260505033003 12 100 1.6 3.2 0.00 0.00 0.00 80 1009.8
20260505032503 12 95 1.6 3.2 0.00 0.00 0.00 80 1009.9
20260505032003 12 87 1.6 4.8 0.00 0.00 0.00 80 1009.8
20260505031503 12 81 1.6 4.8 0.00 0.00 0.00 80 1009.8
20260505031003 12 80 1.6 3.2 0.00 0.00 0.00 79 1009.9
20260505030503 12 70 1.6 4.8 0.00 0.00 0.00 79 1009.9
20260505030217 12 56 1.6 4.8 0.00 0.00 0.00 79 1010.0
20260505025503 12 60 1.6 4.8 0.00 0.00 0.00 79 1010.1
20260505025003 12 62 1.6 4.8 0.00 0.00 0.00 78 1010.0
20260505024503 12 58 1.6 6.4 0.00 0.00 0.00 78 1010.1
20260505024003 12 54 1.6 3.2 0.00 0.00 0.00 78 1010.1
20260505023503 12 58 1.6 4.8 0.00 0.00 0.00 78 1010.2
20260505023003 12 59 1.6 6.4 0.00 0.00 0.00 78 1010.1
20260505022503 13 54 1.6 3.2 0.00 0.00 0.00 77 1010.3
20260505022216 13 53 1.6 3.2 0.00 0.00 0.00 77 1010.2
20260505021503 13 52 1.6 4.8 0.00 0.00 0.00 77 1010.3
20260505021003 13 50 1.6 4.8 0.00 0.00 0.00 77 1010.5
20260505020503 13 47 1.6 6.4 0.00 0.00 0.00 76 1010.3
20260505020003 13 48 1.6 3.2 0.00 0.00 0.00 76 1010.7
20260505015503 13 61 1.6 3.2 0.00 0.00 0.00 75 1010.4
20260505015003 13 58 1.6 4.8 0.00 0.00 0.00 75 1010.5
20260505014503 13 55 0.0 4.8 0.00 0.00 0.00 74 1010.6